Epoch 2014 May 23.0 TT = JDT 2456800.5
T 2014 May 26.03266 TT MPCW
q 3.2390729 (2000.0) P Q
n 0.01713515 Peri. 294.77811 +0.91409061 +0.28169349
a 14.9008424 Node 50.29311 -0.05968595 +0.80496113
e 0.7826248 Incl. 22.28171 -0.40109344 +0.52219379
P 57.5
From 51 observations 2014 Oct. 3-Nov. 23, mean residual 0".4.